Location: Perryvale
(54.4667°N, 113.3833°W)
Time: 19:07:20
(UTC+00:00)

Transit 2A - Pass Details

Date: 26 May 2024
Orbit: 592 x 959 km, 66.7° (Epoch: 19 June)

Event Time Altitude Azimuth Distance (km) Brightness Sun altitude
Rises 07:33:35 0° 256° (WSW) 3,042 9.0 -14.3°
Reaches altitude 10° 07:35:59 10° 265° (W) 2,183 8.3 -14.3°
Maximum altitude 07:40:34 36° 332° (NNW) 1,203 7.6 -14.3°
Drops below altitude 10° 07:45:39 10° 38° (NE) 2,419 9.4 -14.2°
Sets 07:48:26 0° 47° (NE) 3,418 10.1 -14.2°
